Location: Poughquag
(41.6090°N, 73.6820°W)
Time: 12:27:38
(UTC-04:00)

A-11 Canister half - Pass Details

Date: 07 June 2020
Orbit: 1527 x 1682 km, 47.3° (Epoch: 06 July)

Event Time Altitude Azimuth Distance (km) Brightness Sun altitude
Rises 14:17:04 0° 291° (WNW) 4,737 11.7 64.4°
Reaches altitude 10° 14:21:09 10° 276° (W) 3,773 11.5 63.8°
Maximum altitude 14:27:29 20° 234° (SW) 3,081 11.5 62.9°
Drops below altitude 10° 14:33:57 10° 191° (SSW) 3,846 11.5 61.9°
Sets 14:38:13 0° 176° (S) 4,855 11.8 61.2°
